Time,TemperatureF,DewpointF,PressureIn,WindDirection,WindDirectionDegrees,WindSpeedMPH,WindSpeedGustMPH,Humidity,HourlyPrecipIn,Conditions,Clouds,dailyrainin,SoftwareType,DateUTC
2013-04-18 00:00:00,45.5,29.8,30.24,East,86,1.0,2.0,54,0.00,CLR,,0.00,WeatherDisplay:10.37,2013-04-18 04:00:00,
2013-04-18 00:05:00,45.1,29.9,30.24,ENE,58,1.0,1.0,55,0.00,CLR,,0.00,WeatherDisplay:10.37,2013-04-18 04:05:00,
2013-04-18 00:09:00,44.8,29.6,30.24,NE,53,0.0,1.0,55,0.00,CLR,,0.00,WeatherDisplay:10.37,2013-04-18 04:09:00,
2013-04-18 00:14:00,44.8,29.6,30.24,East,85,1.0,1.0,55,0.00,CLR,,0.00,WeatherDisplay:10.37,2013-04-18 04:14:00,
2013-04-18 00:19:00,44.6,29.4,30.24,East,90,0.0,0.0,55,0.00,CLR,,0.00,WeatherDisplay:10.37,2013-04-18 04:19:00,
2013-04-18 00:24:00,44.2,29.5,30.24,East,90,0.0,0.0,56,0.00,CLR,,0.00,WeatherDisplay:10.37,2013-04-18 04:24:00,
2013-04-18 00:29:00,44.1,29.4,30.24,East,84,0.0,0.0,56,0.00,CLR,,0.00,WeatherDisplay:10.37,2013-04-18 04:29:00,
2013-04-18 00:34:00,43.9,29.2,30.24,ENE,73,0.0,0.0,56,0.00,CLR,,0.00,WeatherDisplay:10.37,2013-04-18 04:34:00,
2013-04-18 00:39:00,43.7,29.5,30.24,ENE,71,1.0,1.0,57,0.00,CLR,,0.00,WeatherDisplay:10.37,2013-04-18 04:39:00,
2013-04-18 00:44:00,43.5,29.3,30.27,ENE,75,0.0,1.0,57,0.00,CLR,,0.00,WeatherDisplay:10.37,2013-04-18 04:44:00,
2013-04-18 00:49:00,43.3,29.1,30.27,East,85,0.0,0.0,57,0.00,CLR,,0.00,WeatherDisplay:10.37,2013-04-18 04:49:00,
2013-04-18 00:54:00,43.1,28.9,30.27,East,86,0.0,0.0,57,0.00,CLR,,0.00,WeatherDisplay:10.37,2013-04-18 04:54:00,
2013-04-18 00:59:00,43.0,29.2,30.27,ENE,74,0.0,0.0,58,0.00,CLR,,0.00,WeatherDisplay:10.37,2013-04-18 04:59:00,
2013-04-18 01:04:00,42.8,29.0,30.27,ENE,68,0.0,0.0,58,0.00,CLR,,0.00,WeatherDisplay:10.37,2013-04-18 05:04:00,
2013-04-18 01:09:00,42.4,29.1,30.27,ENE,75,0.0,0.0,59,0.00,CLR,,0.00,WeatherDisplay:10.37,2013-04-18 05:09:00,
2013-04-18 01:14:00,42.3,29.0,30.27,East,86,0.0,0.0,59,0.00,CLR,,0.00,WeatherDisplay:10.37,2013-04-18 05:14:00,
2013-04-18 01:19:00,42.3,28.9,30.27,ENE,69,0.0,0.0,59,0.00,CLR,,0.00,WeatherDisplay:10.37,2013-04-18 05:19:00,
2013-04-18 01:24:00,42.0,28.7,30.27,ENE,59,0.0,0.0,59,0.00,CLR,,0.00,WeatherDisplay:10.37,2013-04-18 05:24:00,
2013-04-18 01:29:00,41.9,28.6,30.27,ENE,77,0.0,0.0,59,0.00,CLR,,0.00,WeatherDisplay:10.37,2013-04-18 05:29:00,
2013-04-18 01:34:00,41.7,28.4,30.27,East,89,0.0,0.0,59,0.00,CLR,,0.00,WeatherDisplay:10.37,2013-04-18 05:34:00,
2013-04-18 01:40:00,41.5,28.7,30.27,East,90,0.0,0.0,60,0.00,CLR,,0.00,WeatherDisplay:10.37,2013-04-18 05:40:00,
2013-04-18 01:49:00,41.2,28.4,30.27,East,90,0.0,0.0,60,0.00,CLR,,0.00,WeatherDisplay:10.37,2013-04-18 05:49:00,
2013-04-18 01:54:00,41.2,28.7,30.27,ENE,77,0.0,0.0,61,0.00,CLR,,0.00,WeatherDisplay:10.37,2013-04-18 05:54:00,
2013-04-18 01:59:00,41.0,28.6,30.27,ENE,62,0.0,0.0,61,0.00,CLR,,0.00,WeatherDisplay:10.37,2013-04-18 05:59:00,
2013-04-18 02:04:00,40.8,28.8,30.27,ENE,58,1.0,1.0,62,0.00,CLR,,0.00,WeatherDisplay:10.37,2013-04-18 06:04:00,
2013-04-18 02:09:00,40.6,28.6,30.27,ENE,75,0.0,0.0,62,0.00,CLR,,0.00,WeatherDisplay:10.37,2013-04-18 06:09:00,
2013-04-18 02:14:00,40.5,28.5,30.27,East,85,1.0,1.0,62,0.00,CLR,,0.00,WeatherDisplay:10.37,2013-04-18 06:14:00,
2013-04-18 02:19:00,40.3,28.3,30.27,ENE,73,0.0,1.0,62,0.00,CLR,,0.00,WeatherDisplay:10.37,2013-04-18 06:19:00,
2013-04-18 02:24:00,40.3,28.7,30.27,ENE,75,1.0,2.0,63,0.00,CLR,,0.00,WeatherDisplay:10.37,2013-04-18 06:24:00,
2013-04-18 02:29:00,40.1,28.5,30.24,ENE,74,1.0,1.0,63,0.00,CLR,,0.00,WeatherDisplay:10.37,2013-04-18 06:29:00,
2013-04-18 02:34:00,39.9,28.3,30.24,ENE,77,0.0,1.0,63,0.00,CLR,,0.00,WeatherDisplay:10.37,2013-04-18 06:34:00,
2013-04-18 02:39:00,39.9,28.3,30.24,East,88,0.0,0.0,63,0.00,CLR,,0.00,WeatherDisplay:10.37,2013-04-18 06:39:00,
2013-04-18 02:44:00,39.7,28.2,30.24,East,90,0.0,0.0,63,0.00,CLR,,0.00,WeatherDisplay:10.37,2013-04-18 06:44:00,
2013-04-18 02:49:00,39.7,28.2,30.24,East,90,0.0,0.0,63,0.00,CLR,,0.00,WeatherDisplay:10.37,2013-04-18 06:49:00,
2013-04-18 02:54:00,39.6,28.0,30.24,East,88,0.0,1.0,63,0.00,CLR,,0.00,WeatherDisplay:10.37,2013-04-18 06:54:00,
2013-04-18 02:59:00,39.4,28.2,30.24,ENE,75,0.0,0.0,64,0.00,CLR,,0.00,WeatherDisplay:10.37,2013-04-18 06:59:00,
2013-04-18 03:04:00,39.4,28.2,30.24,ENE,73,0.0,1.0,64,0.00,CLR,,0.00,WeatherDisplay:10.37,2013-04-18 07:04:00,
2013-04-18 03:09:00,39.2,28.4,30.24,East,84,0.0,2.0,65,0.00,CLR,,0.00,WeatherDisplay:10.37,2013-04-18 07:09:00,
2013-04-18 03:14:00,39.2,28.4,30.27,ENE,71,1.0,1.0,65,0.00,CLR,,0.00,WeatherDisplay:10.37,2013-04-18 07:14:00,
2013-04-18 03:19:00,39.0,28.2,30.27,ENE,63,0.0,1.0,65,0.00,CLR,,0.00,WeatherDisplay:10.37,2013-04-18 07:19:00,
2013-04-18 03:24:00,38.8,28.4,30.27,East,80,0.0,1.0,66,0.00,CLR,,0.00,WeatherDisplay:10.37,2013-04-18 07:24:00,
2013-04-18 03:29:00,38.8,28.4,30.27,ENE,66,0.0,0.0,66,0.00,CLR,,0.00,WeatherDisplay:10.37,2013-04-18 07:29:00,
2013-04-18 03:34:00,38.7,27.9,30.27,NNE,32,0.0,0.0,65,0.00,CLR,,0.00,WeatherDisplay:10.37,2013-04-18 07:34:00,
2013-04-18 03:39:00,38.7,28.3,30.27,NNE,33,0.0,0.0,66,0.00,CLR,,0.00,WeatherDisplay:10.37,2013-04-18 07:39:00,
2013-04-18 03:44:00,38.7,28.3,30.30,ENE,68,0.0,1.0,66,0.00,CLR,,0.00,WeatherDisplay:10.37,2013-04-18 07:44:00,
2013-04-18 03:49:00,38.5,28.1,30.30,East,90,0.0,1.0,66,0.00,CLR,,0.00,WeatherDisplay:10.37,2013-04-18 07:49:00,
2013-04-18 03:54:00,38.5,28.1,30.30,East,90,1.0,1.0,66,0.00,CLR,,0.00,WeatherDisplay:10.37,2013-04-18 07:54:00,
2013-04-18 03:59:00,38.3,27.9,30.27,East,90,0.0,1.0,66,0.00,CLR,,0.00,WeatherDisplay:10.37,2013-04-18 07:59:00,
2013-04-18 04:04:00,38.3,27.9,30.27,East,84,0.0,0.0,66,0.00,CLR,,0.00,WeatherDisplay:10.37,2013-04-18 08:04:00,
2013-04-18 04:09:00,38.1,28.1,30.27,East,86,0.0,0.0,67,0.00,CLR,,0.00,WeatherDisplay:10.37,2013-04-18 08:09:00,
2013-04-18 04:14:00,38.1,28.1,30.27,East,90,0.0,0.0,67,0.00,CLR,,0.00,WeatherDisplay:10.37,2013-04-18 08:14:00,
2013-04-18 04:19:00,38.0,28.0,30.27,East,90,0.0,0.0,67,0.00,CLR,,0.00,WeatherDisplay:10.37,2013-04-18 08:19:00,
2013-04-18 04:24:00,37.9,27.6,30.27,East,90,0.0,0.0,66,0.00,CLR,,0.00,WeatherDisplay:10.37,2013-04-18 08:24:00,
2013-04-18 04:29:00,37.9,27.6,30.27,East,90,0.0,0.0,66,0.00,CLR,,0.00,WeatherDisplay:10.37,2013-04-18 08:29:00,
2013-04-18 04:34:00,37.9,27.9,30.27,East,90,0.0,0.0,67,0.00,CLR,,0.00,WeatherDisplay:10.37,2013-04-18 08:34:00,
2013-04-18 04:39:00,37.8,27.8,30.27,East,90,1.0,1.0,67,0.00,CLR,,0.00,WeatherDisplay:10.37,2013-04-18 08:39:00,
2013-04-18 04:44:00,37.6,27.6,30.27,East,90,1.0,1.0,67,0.00,CLR,,0.00,WeatherDisplay:10.37,2013-04-18 08:44:00,
2013-04-18 04:49:00,37.6,27.6,30.27,East,90,0.0,1.0,67,0.00,CLR,,0.00,WeatherDisplay:10.37,2013-04-18 08:49:00,
2013-04-18 04:54:00,37.4,27.4,30.27,East,90,0.0,0.0,67,0.00,CLR,,0.00,WeatherDisplay:10.37,2013-04-18 08:54:00,
2013-04-18 04:59:00,37.4,27.8,30.27,East,90,0.0,0.0,68,0.00,CLR,,0.00,WeatherDisplay:10.37,2013-04-18 08:59:00,
2013-04-18 05:04:00,37.4,28.2,30.27,East,81,0.0,0.0,69,0.00,CLR,,0.00,WeatherDisplay:10.37,2013-04-18 09:04:00,
2013-04-18 05:09:00,37.2,28.0,30.27,East,82,0.0,0.0,69,0.00,CLR,,0.00,WeatherDisplay:10.37,2013-04-18 09:09:00,
2013-04-18 05:14:00,37.2,28.0,30.27,East,90,0.0,0.0,69,0.00,CLR,,0.00,WeatherDisplay:10.37,2013-04-18 09:14:00,
2013-04-18 05:19:00,37.0,27.5,30.27,East,100,0.0,0.0,68,0.00,CLR,,0.00,WeatherDisplay:10.37,2013-04-18 09:19:00,
2013-04-18 05:24:00,37.0,27.5,30.27,ESE,111,0.0,0.0,68,0.00,CLR,,0.00,WeatherDisplay:10.37,2013-04-18 09:24:00,
2013-04-18 05:29:00,37.0,27.8,30.27,East,99,1.0,2.0,69,0.00,CLR,,0.00,WeatherDisplay:10.37,2013-04-18 09:29:00,
2013-04-18 05:34:00,37.0,28.2,30.27,ESE,110,0.0,2.0,70,0.00,CLR,,0.00,WeatherDisplay:10.37,2013-04-18 09:34:00,
2013-04-18 05:39:00,37.0,27.8,30.27,SE,133,0.0,0.0,69,0.00,CLR,,0.00,WeatherDisplay:10.37,2013-04-18 09:39:00,
2013-04-18 05:44:00,36.9,28.0,30.27,ESE,118,1.0,1.0,70,0.00,CLR,,0.00,WeatherDisplay:10.37,2013-04-18 09:44:00,
2013-04-18 05:49:00,36.9,27.6,30.27,East,95,0.0,1.0,69,0.00,CLR,,0.00,WeatherDisplay:10.37,2013-04-18 09:49:00,
2013-04-18 05:54:00,36.9,27.6,30.27,East,90,0.0,0.0,69,0.00,CLR,,0.00,WeatherDisplay:10.37,2013-04-18 09:54:00,
2013-04-18 05:59:00,36.7,27.5,30.27,East,90,0.0,0.0,69,0.00,CLR,,0.00,WeatherDisplay:10.37,2013-04-18 09:59:00,
2013-04-18 06:04:00,36.7,27.5,30.27,East,90,0.0,0.0,69,0.00,CLR,,0.00,WeatherDisplay:10.37,2013-04-18 10:04:00,
2013-04-18 06:09:00,36.7,27.8,30.27,East,90,0.0,0.0,70,0.00,CLR,,0.00,WeatherDisplay:10.37,2013-04-18 10:09:00,
2013-04-18 06:14:00,36.7,27.8,30.27,East,93,1.0,2.0,70,0.00,CLR,,0.00,WeatherDisplay:10.37,2013-04-18 10:14:00,
2013-04-18 06:19:00,36.7,27.8,30.27,East,93,0.0,1.0,70,0.00,CLR,,0.00,WeatherDisplay:10.37,2013-04-18 10:19:00,
2013-04-18 06:24:00,36.5,27.6,30.27,East,90,0.0,0.0,70,0.00,CLR,,0.00,WeatherDisplay:10.37,2013-04-18 10:24:00,
2013-04-18 06:29:00,36.5,27.6,30.27,East,90,0.0,0.0,70,0.00,CLR,,0.00,WeatherDisplay:10.37,2013-04-18 10:29:00,
2013-04-18 06:34:00,36.5,27.6,30.27,East,90,0.0,0.0,70,0.00,CLR,,0.00,WeatherDisplay:10.37,2013-04-18 10:34:00,
2013-04-18 06:39:00,36.5,28.0,30.27,East,90,0.0,0.0,71,0.00,CLR,,0.00,WeatherDisplay:10.37,2013-04-18 10:39:00,
2013-04-18 06:44:00,36.5,28.0,30.27,East,90,0.0,0.0,71,0.00,CLR,,0.00,WeatherDisplay:10.37,2013-04-18 10:44:00,
2013-04-18 06:50:00,36.5,28.0,30.27,East,95,0.0,0.0,71,0.00,CLR,,0.00,WeatherDisplay:10.37,2013-04-18 10:50:00,
2013-04-18 06:59:00,36.6,28.1,30.27,SE,131,0.0,0.0,71,0.00,CLR,,0.00,WeatherDisplay:10.37,2013-04-18 10:59:00,
2013-04-18 07:04:00,36.7,28.5,30.27,SE,135,0.0,0.0,72,0.00,CLR,,0.00,WeatherDisplay:10.37,2013-04-18 11:04:00,
2013-04-18 07:09:00,36.7,28.5,30.27,SE,131,0.0,1.0,72,0.00,CLR,,0.00,WeatherDisplay:10.37,2013-04-18 11:09:00,
2013-04-18 07:14:00,36.9,28.7,30.27,ESE,118,0.0,0.0,72,0.00,CLR,,0.00,WeatherDisplay:10.37,2013-04-18 11:14:00,
2013-04-18 07:19:00,36.9,28.7,30.27,ESE,112,0.0,0.0,72,0.00,CLR,,0.00,WeatherDisplay:10.37,2013-04-18 11:19:00,
2013-04-18 07:24:00,37.0,28.8,30.27,ESE,112,0.0,0.0,72,0.00,CLR,,0.00,WeatherDisplay:10.37,2013-04-18 11:24:00,
2013-04-18 07:29:00,37.4,29.5,30.30,SE,135,1.0,1.0,73,0.00,CLR,,0.00,WeatherDisplay:10.37,2013-04-18 11:29:00,
2013-04-18 07:34:00,37.8,30.2,30.30,South,181,0.0,0.0,74,0.00,CLR,,0.00,WeatherDisplay:10.37,2013-04-18 11:34:00,
2013-04-18 07:39:00,37.9,30.4,30.30,SE,124,0.0,0.0,74,0.00,CLR,,0.00,WeatherDisplay:10.37,2013-04-18 11:39:00,
2013-04-18 07:44:00,38.3,30.7,30.30,East,96,1.0,2.0,74,0.00,CLR,,0.00,WeatherDisplay:10.37,2013-04-18 11:44:00,
2013-04-18 07:49:00,39.0,31.8,30.30,SE,130,0.0,0.0,75,0.00,CLR,,0.00,WeatherDisplay:10.37,2013-04-18 11:49:00,
2013-04-18 07:54:00,39.6,32.4,30.30,SE,143,0.0,1.0,75,0.00,CLR,,0.00,WeatherDisplay:10.37,2013-04-18 11:54:00,
2013-04-18 07:59:00,40.2,32.9,30.30,ENE,74,0.0,1.0,75,0.00,CLR,,0.00,WeatherDisplay:10.37,2013-04-18 11:59:00,
2013-04-18 08:04:00,40.9,33.6,30.30,ESE,105,0.0,1.0,75,0.00,CLR,,0.00,WeatherDisplay:10.37,2013-04-18 12:04:00,
2013-04-18 08:09:00,41.9,34.6,30.30,ESE,122,1.0,2.0,75,0.00,CLR,,0.00,WeatherDisplay:10.37,2013-04-18 12:09:00,
2013-04-18 08:15:00,42.8,35.1,30.30,East,94,1.0,2.0,74,0.00,CLR,,0.00,WeatherDisplay:10.37,2013-04-18 12:15:00,
2013-04-18 08:19:00,43.7,35.3,30.30,East,83,2.0,2.0,72,0.00,CLR,,0.00,WeatherDisplay:10.37,2013-04-18 12:19:00,
2013-04-18 08:24:00,44.5,35.4,30.30,ESE,105,2.0,2.0,70,0.00,CLR,,0.00,WeatherDisplay:10.37,2013-04-18 12:24:00,
2013-04-18 08:29:00,45.3,36.1,30.30,ESE,110,3.0,3.0,70,0.00,CLR,,0.00,WeatherDisplay:10.37,2013-04-18 12:29:00,
2013-04-18 08:34:00,46.1,36.1,30.30,SE,128,1.0,3.0,68,0.00,CLR,,0.00,WeatherDisplay:10.37,2013-04-18 12:34:00,
2013-04-18 08:39:00,46.6,35.8,30.30,SE,138,2.0,2.0,66,0.00,CLR,,0.00,WeatherDisplay:10.37,2013-04-18 12:39:00,
2013-04-18 08:44:00,47.5,36.3,30.30,SE,129,2.0,2.0,65,0.00,CLR,,0.00,WeatherDisplay:10.37,2013-04-18 12:44:00,
2013-04-18 08:49:00,48.6,36.9,30.30,SE,135,2.0,2.0,64,0.00,CLR,,0.00,WeatherDisplay:10.37,2013-04-18 12:49:00,
2013-04-18 08:54:00,49.2,36.8,30.30,SSE,155,2.0,2.0,62,0.00,CLR,,0.00,WeatherDisplay:10.37,2013-04-18 12:54:00,
2013-04-18 08:59:00,50.1,37.1,30.30,WNW,302,0.0,2.0,61,0.00,CLR,,0.00,WeatherDisplay:10.37,2013-04-18 12:59:00,
2013-04-18 09:04:00,50.9,37.5,30.30,South,170,2.0,2.0,60,0.00,CLR,,0.00,WeatherDisplay:10.37,2013-04-18 13:04:00,
2013-04-18 09:09:00,51.8,37.9,30.30,South,189,1.0,2.0,59,0.00,CLR,,0.00,WeatherDisplay:10.37,2013-04-18 13:09:00,
2013-04-18 09:14:00,52.7,38.3,30.30,SSW,209,1.0,1.0,58,0.00,CLR,,0.00,WeatherDisplay:10.37,2013-04-18 13:14:00,
2013-04-18 09:19:00,53.8,38.4,30.30,NNW,339,2.0,2.0,56,0.00,CLR,,0.00,WeatherDisplay:10.37,2013-04-18 13:19:00,
2013-04-18 09:24:00,54.6,38.8,30.30,NW,307,2.0,2.0,55,0.00,CLR,,0.00,WeatherDisplay:10.37,2013-04-18 13:24:00,
2013-04-18 09:29:00,55.1,38.7,30.30,SW,234,7.0,7.0,54,0.00,CLR,,0.00,WeatherDisplay:10.37,2013-04-18 13:29:00,
2013-04-18 09:34:00,55.6,38.7,30.30,SW,227,3.0,7.0,53,0.00,CLR,,0.00,WeatherDisplay:10.37,2013-04-18 13:34:00,
2013-04-18 09:39:00,55.9,38.6,30.30,SE,138,1.0,4.0,52,0.00,CLR,,0.00,WeatherDisplay:10.37,2013-04-18 13:39:00,
2013-04-18 09:44:00,56.3,38.4,30.30,WSW,247,2.0,3.0,51,0.00,CLR,,0.00,WeatherDisplay:10.37,2013-04-18 13:44:00,
2013-04-18 09:49:00,56.7,38.7,30.30,West,278,0.0,2.0,51,0.00,CLR,,0.00,WeatherDisplay:10.37,2013-04-18 13:49:00,
2013-04-18 09:54:00,57.0,38.5,30.30,SE,128,1.0,5.0,50,0.00,CLR,,0.00,WeatherDisplay:10.37,2013-04-18 13:54:00,
2013-04-18 09:59:00,57.2,38.2,30.27,SSE,153,2.0,5.0,49,0.00,CLR,,0.00,WeatherDisplay:10.37,2013-04-18 13:59:00,
2013-04-18 10:04:00,57.6,38.5,30.27,ESE,115,6.0,7.0,49,0.00,CLR,,0.00,WeatherDisplay:10.37,2013-04-18 14:04:00,
2013-04-18 10:09:00,57.6,38.0,30.27,SE,138,1.0,7.0,48,0.00,CLR,,0.00,WeatherDisplay:10.37,2013-04-18 14:09:00,
2013-04-18 10:14:00,58.1,38.5,30.27,SSW,206,1.0,1.0,48,0.00,CLR,,0.00,WeatherDisplay:10.37,2013-04-18 14:14:00,
2013-04-18 10:19:00,58.1,38.0,30.27,SSE,161,3.0,6.0,47,0.00,CLR,,0.00,WeatherDisplay:10.37,2013-04-18 14:19:00,
2013-04-18 10:24:00,58.3,38.1,30.27,SSE,152,5.0,6.0,47,0.00,CLR,,0.00,WeatherDisplay:10.37,2013-04-18 14:24:00,
2013-04-18 10:29:00,58.3,37.6,30.30,SSE,153,3.0,5.0,46,0.00,CLR,,0.00,WeatherDisplay:10.37,2013-04-18 14:29:00,
2013-04-18 10:34:00,58.6,37.9,30.30,SE,144,2.0,5.0,46,0.00,CLR,,0.00,WeatherDisplay:10.37,2013-04-18 14:34:00,
2013-04-18 10:39:00,59.0,38.2,30.30,SSW,199,5.0,5.0,46,0.00,CLR,,0.00,WeatherDisplay:10.37,2013-04-18 14:39:00,
2013-04-18 10:44:00,59.4,38.0,30.30,WSW,242,2.0,5.0,45,0.00,CLR,,0.00,WeatherDisplay:10.37,2013-04-18 14:44:00,
2013-04-18 10:49:00,59.5,38.2,30.30,SW,232,5.0,5.0,45,0.00,CLR,,0.00,WeatherDisplay:10.37,2013-04-18 14:49:00,
2013-04-18 10:54:00,59.7,38.3,30.30,SSW,196,2.0,3.0,45,0.00,CLR,,0.00,WeatherDisplay:10.37,2013-04-18 14:54:00,
2013-04-18 10:59:00,60.2,38.7,30.27,SSE,164,3.0,3.0,45,0.00,CLR,,0.00,WeatherDisplay:10.37,2013-04-18 14:59:00,
2013-04-18 11:04:00,60.8,38.7,30.27,SSW,213,5.0,5.0,44,0.00,CLR,,0.00,WeatherDisplay:10.37,2013-04-18 15:04:00,
2013-04-18 11:09:00,60.6,38.6,30.27,SSE,166,5.0,5.0,44,0.00,CLR,,0.00,WeatherDisplay:10.37,2013-04-18 15:09:00,
2013-04-18 11:14:00,60.6,38.6,30.30,SE,139,6.0,6.0,44,0.00,CLR,,0.00,WeatherDisplay:10.37,2013-04-18 15:14:00,
2013-04-18 11:19:00,61.0,38.9,30.30,SW,215,5.0,6.0,44,0.00,CLR,,0.00,WeatherDisplay:10.37,2013-04-18 15:19:00,
2013-04-18 11:25:00,61.3,39.2,30.30,WSW,246,5.0,5.0,44,0.00,CLR,,0.00,WeatherDisplay:10.37,2013-04-18 15:25:00,
2013-04-18 11:30:00,61.7,39.0,30.30,SW,235,2.0,5.0,43,0.00,CLR,,0.00,WeatherDisplay:10.37,2013-04-18 15:30:00,
2013-04-18 11:39:00,62.2,39.5,30.30,SSE,153,1.0,6.0,43,0.00,CLR,,0.00,WeatherDisplay:10.37,2013-04-18 15:39:00,
2013-04-18 11:44:00,62.6,39.2,30.30,East,88,6.0,6.0,42,0.00,CLR,,0.00,WeatherDisplay:10.37,2013-04-18 15:44:00,
2013-04-18 11:49:00,63.1,39.6,30.30,ENE,76,0.0,6.0,42,0.00,CLR,,0.00,WeatherDisplay:10.37,2013-04-18 15:49:00,
2013-04-18 11:54:00,63.4,39.9,30.30,SE,132,2.0,4.0,42,0.00,CLR,,0.00,WeatherDisplay:10.37,2013-04-18 15:54:00,
2013-04-18 11:59:00,63.7,40.1,30.27,SSE,166,1.0,2.0,42,0.00,CLR,,0.00,WeatherDisplay:10.37,2013-04-18 15:59:00,
2013-04-18 12:04:00,63.7,39.5,30.27,SW,220,2.0,3.0,41,0.00,CLR,,0.00,WeatherDisplay:10.37,2013-04-18 16:04:00,
2013-04-18 12:09:00,63.1,39.0,30.27,WSW,248,2.0,6.0,41,0.00,CLR,,0.00,WeatherDisplay:10.37,2013-04-18 16:09:00,
2013-04-18 12:14:00,63.3,39.2,30.27,West,260,3.0,6.0,41,0.00,CLR,,0.00,WeatherDisplay:10.37,2013-04-18 16:14:00,
2013-04-18 12:19:00,63.8,39.6,30.27,WSW,252,2.0,6.0,41,0.00,CLR,,0.00,WeatherDisplay:10.37,2013-04-18 16:19:00,
2013-04-18 12:24:00,63.5,38.7,30.27,WSW,237,3.0,6.0,40,0.00,CLR,,0.00,WeatherDisplay:10.37,2013-04-18 16:24:00,
2013-04-18 12:29:00,63.7,38.9,30.27,WSW,246,1.0,4.0,40,0.00,CLR,,0.00,WeatherDisplay:10.37,2013-04-18 16:29:00,
2013-04-18 12:34:00,63.9,39.1,30.27,NNE,13,7.0,7.0,40,0.00,CLR,,0.00,WeatherDisplay:10.37,2013-04-18 16:34:00,
2013-04-18 12:39:00,63.1,38.4,30.27,North,10,3.0,7.0,40,0.00,CLR,,0.00,WeatherDisplay:10.37,2013-04-18 16:39:00,
2013-04-18 12:44:00,63.1,37.8,30.27,West,269,3.0,5.0,39,0.00,CLR,,0.00,WeatherDisplay:10.37,2013-04-18 16:44:00,
2013-04-18 12:49:00,63.1,37.7,30.27,WSW,244,3.0,4.0,39,0.00,CLR,,0.00,WeatherDisplay:10.37,2013-04-18 16:49:00,
2013-04-18 12:59:00,62.4,37.1,30.27,South,184,2.0,3.0,39,0.00,CLR,,0.00,WeatherDisplay:10.37,2013-04-18 16:59:00,
2013-04-18 13:04:00,62.2,37.0,30.27,South,189,6.0,6.0,39,0.00,CLR,,0.00,WeatherDisplay:10.37,2013-04-18 17:04:00,
2013-04-18 13:09:00,61.7,36.5,30.27,SSE,154,6.0,6.0,39,0.00,CLR,,0.00,WeatherDisplay:10.37,2013-04-18 17:09:00,
2013-04-18 13:14:00,61.7,36.5,30.27,SE,139,1.0,6.0,39,0.00,CLR,,0.00,WeatherDisplay:10.37,2013-04-18 17:14:00,
2013-04-18 13:19:00,61.9,36.6,30.27,ESE,114,5.0,7.0,39,0.00,CLR,,0.00,WeatherDisplay:10.37,2013-04-18 17:19:00,
2013-04-18 13:24:00,61.9,36.6,30.27,SSE,149,6.0,7.0,39,0.00,CLR,,0.00,WeatherDisplay:10.37,2013-04-18 17:24:00,
2013-04-18 13:29:00,61.3,36.1,30.27,SSE,168,6.0,7.0,39,0.00,CLR,,0.00,WeatherDisplay:10.37,2013-04-18 17:29:00,
2013-04-18 13:34:00,61.3,36.2,30.27,South,185,2.0,6.0,39,0.00,CLR,,0.00,WeatherDisplay:10.37,2013-04-18 17:34:00,
2013-04-18 13:39:00,61.2,36.0,30.27,SSE,165,2.0,3.0,39,0.00,CLR,,0.00,WeatherDisplay:10.37,2013-04-18 17:39:00,
2013-04-18 13:44:00,61.5,36.3,30.27,ESE,106,6.0,6.0,39,0.00,CLR,,0.00,WeatherDisplay:10.37,2013-04-18 17:44:00,
2013-04-18 13:49:00,61.8,36.6,30.27,East,92,2.0,6.0,39,0.00,CLR,,0.00,WeatherDisplay:10.37,2013-04-18 17:49:00,
2013-04-18 13:54:00,61.9,36.7,30.27,SE,136,2.0,8.0,39,0.00,CLR,,0.00,WeatherDisplay:10.37,2013-04-18 17:54:00,
2013-04-18 13:59:00,62.2,37.0,30.27,SE,138,2.0,5.0,39,0.00,CLR,,0.00,WeatherDisplay:10.37,2013-04-18 17:59:00,
2013-04-18 14:04:00,62.2,37.0,30.27,WSW,248,8.0,10.0,39,0.00,CLR,,0.00,WeatherDisplay:10.37,2013-04-18 18:04:00,
2013-04-18 14:09:00,62.1,36.8,30.27,WSW,241,2.0,5.0,39,0.00,CLR,,0.00,WeatherDisplay:10.37,2013-04-18 18:09:00,
2013-04-18 14:14:00,62.6,36.6,30.27,SW,217,1.0,1.0,38,0.00,CLR,,0.00,WeatherDisplay:10.37,2013-04-18 18:14:00,
2013-04-18 14:19:00,62.8,37.4,30.27,SSW,208,5.0,5.0,39,0.00,CLR,,0.00,WeatherDisplay:10.37,2013-04-18 18:19:00,
2013-04-18 14:24:00,63.1,37.8,30.27,SW,229,5.0,7.0,39,0.00,CLR,,0.00,WeatherDisplay:10.37,2013-04-18 18:24:00,
2013-04-18 14:29:00,63.0,36.9,30.24,SSW,196,5.0,6.0,38,0.00,CLR,,0.00,WeatherDisplay:10.37,2013-04-18 18:29:00,
2013-04-18 14:34:00,63.1,37.8,30.24,NE,41,5.0,5.0,39,0.00,CLR,,0.00,WeatherDisplay:10.37,2013-04-18 18:34:00,
2013-04-18 14:39:00,63.0,37.6,30.24,NW,324,8.0,9.0,39,0.00,CLR,,0.00,WeatherDisplay:10.37,2013-04-18 18:39:00,
2013-04-18 14:44:00,62.1,36.8,30.24,WNW,284,3.0,9.0,39,0.00,CLR,,0.00,WeatherDisplay:10.37,2013-04-18 18:44:00,
2013-04-18 14:49:00,61.9,36.6,30.24,WSW,237,5.0,5.0,39,0.00,CLR,,0.00,WeatherDisplay:10.37,2013-04-18 18:49:00,
2013-04-18 14:54:00,61.8,36.6,30.24,WSW,249,2.0,5.0,39,0.00,CLR,,0.00,WeatherDisplay:10.37,2013-04-18 18:54:00,
2013-04-18 14:59:00,61.3,36.2,30.24,South,178,6.0,6.0,39,0.00,CLR,,0.00,WeatherDisplay:10.37,2013-04-18 18:59:00,
2013-04-18 15:04:00,60.8,35.7,30.24,SSE,159,3.0,3.0,39,0.00,CLR,,0.00,WeatherDisplay:10.37,2013-04-18 19:04:00,
2013-04-18 15:09:00,60.6,35.5,30.24,SSE,163,1.0,3.0,39,0.00,CLR,,0.00,WeatherDisplay:10.37,2013-04-18 19:09:00,
2013-04-18 15:14:00,60.4,35.3,30.24,East,98,2.0,3.0,39,0.00,CLR,,0.00,WeatherDisplay:10.37,2013-04-18 19:14:00,
2013-04-18 15:19:00,60.5,35.4,30.24,SE,125,2.0,2.0,39,0.00,CLR,,0.00,WeatherDisplay:10.37,2013-04-18 19:19:00,
2013-04-18 15:24:00,60.8,35.6,30.24,SW,227,3.0,4.0,39,0.00,CLR,,0.00,WeatherDisplay:10.37,2013-04-18 19:24:00,
2013-04-18 15:29:00,60.6,35.5,30.24,SW,214,1.0,3.0,39,0.00,CLR,,0.00,WeatherDisplay:10.37,2013-04-18 19:29:00,
2013-04-18 15:39:00,60.3,35.2,30.24,SE,126,1.0,3.0,39,0.00,CLR,,0.00,WeatherDisplay:10.37,2013-04-18 19:39:00,
2013-04-18 15:49:00,60.2,35.1,30.24,WSW,241,1.0,3.0,39,0.00,CLR,,0.00,WeatherDisplay:10.37,2013-04-18 19:49:00,
2013-04-18 15:54:00,59.9,34.9,30.24,SW,227,2.0,3.0,39,0.00,CLR,,0.00,WeatherDisplay:10.37,2013-04-18 19:54:00,
2013-04-18 15:59:00,59.9,34.9,30.21,NNE,21,2.0,3.0,39,0.00,CLR,,0.00,WeatherDisplay:10.37,2013-04-18 19:59:00,
2013-04-18 16:04:00,59.9,35.5,30.21,NNE,17,3.0,6.0,40,0.00,CLR,,0.00,WeatherDisplay:10.37,2013-04-18 20:04:00,
2013-04-18 16:09:00,60.1,35.7,30.21,SW,226,2.0,3.0,40,0.00,CLR,,0.00,WeatherDisplay:10.37,2013-04-18 20:09:00,
2013-04-18 16:14:00,59.9,35.5,30.21,SSW,204,5.0,6.0,40,0.00,CLR,,0.00,WeatherDisplay:10.37,2013-04-18 20:14:00,
2013-04-18 16:19:00,59.9,35.5,30.21,SSW,207,0.0,5.0,40,0.00,CLR,,0.00,WeatherDisplay:10.37,2013-04-18 20:19:00,
2013-04-18 16:29:00,59.7,35.3,30.21,WNW,296,1.0,2.0,40,0.00,CLR,,0.00,WeatherDisplay:10.37,2013-04-18 20:29:00,
2013-04-18 16:34:00,59.4,35.0,30.21,SSW,193,2.0,4.0,40,0.00,CLR,,0.00,WeatherDisplay:10.37,2013-04-18 20:34:00,
2013-04-18 16:39:00,59.1,34.8,30.21,SSW,198,1.0,1.0,40,0.00,CLR,,0.00,WeatherDisplay:10.37,2013-04-18 20:39:00,
2013-04-18 16:44:00,59.0,35.3,30.21,WSW,242,1.0,1.0,41,0.00,CLR,,0.00,WeatherDisplay:10.37,2013-04-18 20:44:00,
2013-04-18 16:49:00,58.7,35.1,30.21,South,173,3.0,4.0,41,0.00,CLR,,0.00,WeatherDisplay:10.37,2013-04-18 20:49:00,
2013-04-18 16:54:00,58.6,35.6,30.21,SSE,162,1.0,4.0,42,0.00,CLR,,0.00,WeatherDisplay:10.37,2013-04-18 20:54:00,
2013-04-18 16:59:00,58.5,35.4,30.21,SW,235,6.0,6.0,42,0.00,CLR,,0.00,WeatherDisplay:10.37,2013-04-18 20:59:00,
2013-04-18 17:04:00,58.3,35.3,30.21,WNW,302,2.0,3.0,42,0.00,CLR,,0.00,WeatherDisplay:10.37,2013-04-18 21:04:00,
2013-04-18 17:09:00,57.9,35.5,30.21,SE,136,3.0,3.0,43,0.00,CLR,,0.00,WeatherDisplay:10.37,2013-04-18 21:09:00,
2013-04-18 17:19:00,57.5,35.7,30.21,ESE,114,2.0,6.0,44,0.00,CLR,,0.00,WeatherDisplay:10.37,2013-04-18 21:19:00,
2013-04-18 17:24:00,57.2,35.5,30.21,SE,140,2.0,2.0,44,0.00,CLR,,0.00,WeatherDisplay:10.37,2013-04-18 21:24:00,
2013-04-18 17:29:00,57.0,35.9,30.18,SSE,148,1.0,2.0,45,0.00,CLR,,0.00,WeatherDisplay:10.37,2013-04-18 21:29:00,
2013-04-18 17:34:00,56.8,35.7,30.18,ESE,103,3.0,6.0,45,0.00,CLR,,0.00,WeatherDisplay:10.37,2013-04-18 21:34:00,
2013-04-18 17:39:00,56.7,36.1,30.18,East,97,2.0,4.0,46,0.00,CLR,,0.00,WeatherDisplay:10.37,2013-04-18 21:39:00,
2013-04-18 17:49:00,56.3,35.8,30.18,South,191,1.0,4.0,46,0.00,CLR,,0.00,WeatherDisplay:10.37,2013-04-18 21:49:00,
2013-04-18 17:54:00,56.1,35.6,30.18,ESE,118,2.0,2.0,46,0.00,CLR,,0.00,WeatherDisplay:10.37,2013-04-18 21:54:00,
2013-04-18 17:59:00,55.8,35.9,30.18,SE,125,1.0,2.0,47,0.00,CLR,,0.00,WeatherDisplay:10.37,2013-04-18 21:59:00,
2013-04-18 18:04:00,55.8,35.8,30.18,SSE,154,1.0,1.0,47,0.00,CLR,,0.00,WeatherDisplay:10.37,2013-04-18 22:04:00,
2013-04-18 18:09:00,55.6,35.7,30.18,South,180,1.0,1.0,47,0.00,CLR,,0.00,WeatherDisplay:10.37,2013-04-18 22:09:00,
2013-04-18 18:14:00,55.4,35.5,30.18,SSE,163,1.0,2.0,47,0.00,CLR,,0.00,WeatherDisplay:10.37,2013-04-18 22:14:00,
2013-04-18 18:19:00,55.2,35.9,30.18,SE,141,1.0,1.0,48,0.00,CLR,,0.00,WeatherDisplay:10.37,2013-04-18 22:19:00,
2013-04-18 18:24:00,55.0,35.7,30.18,SSW,199,2.0,2.0,48,0.00,CLR,,0.00,WeatherDisplay:10.37,2013-04-18 22:24:00,
2013-04-18 18:29:00,54.9,36.0,30.15,SW,225,2.0,2.0,49,0.00,CLR,,0.00,WeatherDisplay:10.37,2013-04-18 22:29:00,
2013-04-18 18:34:00,54.8,36.0,30.15,SSW,198,1.0,2.0,49,0.00,CLR,,0.00,WeatherDisplay:10.37,2013-04-18 22:34:00,
2013-04-18 18:39:00,54.5,35.7,30.15,SE,126,1.0,2.0,49,0.00,CLR,,0.00,WeatherDisplay:10.37,2013-04-18 22:39:00,
2013-04-18 18:44:00,54.5,36.2,30.15,South,186,3.0,3.0,50,0.00,CLR,,0.00,WeatherDisplay:10.37,2013-04-18 22:44:00,
2013-04-18 18:49:00,54.1,35.9,30.15,SW,214,2.0,3.0,50,0.00,CLR,,0.00,WeatherDisplay:10.37,2013-04-18 22:49:00,
2013-04-18 18:54:00,54.0,36.2,30.15,SE,146,3.0,4.0,51,0.00,CLR,,0.00,WeatherDisplay:10.37,2013-04-18 22:54:00,
2013-04-18 18:59:00,53.8,36.1,30.15,SE,135,3.0,4.0,51,0.00,CLR,,0.00,WeatherDisplay:10.37,2013-04-18 22:59:00,
2013-04-18 19:04:00,53.7,36.0,30.15,ESE,118,2.0,4.0,51,0.00,CLR,,0.00,WeatherDisplay:10.37,2013-04-18 23:04:00,
2013-04-18 19:09:00,53.4,36.2,30.15,NNE,23,1.0,2.0,52,0.00,CLR,,0.00,WeatherDisplay:10.37,2013-04-18 23:09:00,
2013-04-18 19:19:00,53.1,36.4,30.15,SSW,213,2.0,4.0,53,0.00,CLR,,0.00,WeatherDisplay:10.37,2013-04-18 23:19:00,
2013-04-18 19:24:00,53.1,36.4,30.15,SW,234,1.0,1.0,53,0.00,CLR,,0.00,WeatherDisplay:10.37,2013-04-18 23:24:00,
2013-04-18 19:29:00,53.1,36.4,30.15,WSW,254,1.0,1.0,53,0.00,CLR,,0.00,WeatherDisplay:10.37,2013-04-18 23:29:00,
2013-04-18 19:44:00,52.7,37.0,30.15,SSW,196,1.0,1.0,55,0.00,CLR,,0.00,WeatherDisplay:10.37,2013-04-18 23:44:00,
2013-04-18 19:49:00,52.5,36.8,30.15,South,171,1.0,3.0,55,0.00,CLR,,0.00,WeatherDisplay:10.37,2013-04-18 23:49:00,
2013-04-18 19:54:00,52.5,36.8,30.15,South,182,0.0,2.0,55,0.00,CLR,,0.00,WeatherDisplay:10.37,2013-04-18 23:54:00,
2013-04-18 19:59:00,52.5,37.3,30.15,South,186,0.0,1.0,56,0.00,CLR,,0.00,WeatherDisplay:10.37,2013-04-18 23:59:00,
2013-04-18 20:04:00,52.3,37.1,30.15,South,190,1.0,1.0,56,0.00,CLR,,0.00,WeatherDisplay:10.37,2013-04-19 00:04:00,
2013-04-18 20:09:00,52.3,37.1,30.15,SSW,205,1.0,1.0,56,0.00,CLR,,0.00,WeatherDisplay:10.37,2013-04-19 00:09:00,
2013-04-18 20:14:00,52.3,37.1,30.15,SSW,202,1.0,1.0,56,0.00,CLR,,0.00,WeatherDisplay:10.37,2013-04-19 00:14:00,
2013-04-18 20:19:00,52.3,37.5,30.15,SSW,202,1.0,1.0,57,0.00,CLR,,0.00,WeatherDisplay:10.37,2013-04-19 00:19:00,
2013-04-18 20:24:00,52.2,37.4,30.15,ESE,122,2.0,2.0,57,0.00,CLR,,0.00,WeatherDisplay:10.37,2013-04-19 00:24:00,
2013-04-18 20:29:00,52.2,37.4,30.15,ENE,78,2.0,2.0,57,0.00,CLR,,0.00,WeatherDisplay:10.37,2013-04-19 00:29:00,
2013-04-18 20:34:00,52.1,37.8,30.15,East,93,0.0,2.0,58,0.00,CLR,,0.00,WeatherDisplay:10.37,2013-04-19 00:34:00,
2013-04-18 20:39:00,52.0,37.7,30.15,SSE,148,1.0,1.0,58,0.00,CLR,,0.00,WeatherDisplay:10.37,2013-04-19 00:39:00,
2013-04-18 20:44:00,51.9,37.6,30.15,South,187,2.0,2.0,58,0.00,CLR,,0.00,WeatherDisplay:10.37,2013-04-19 00:44:00,
2013-04-18 20:49:00,51.8,37.9,30.15,SSW,198,0.0,2.0,59,0.00,CLR,,0.00,WeatherDisplay:10.37,2013-04-19 00:49:00,
2013-04-18 20:54:00,51.8,37.9,30.15,SW,222,1.0,1.0,59,0.00,CLR,,0.00,WeatherDisplay:10.37,2013-04-19 00:54:00,
2013-04-18 20:59:00,51.8,37.9,30.15,SW,225,1.0,1.0,59,0.00,CLR,,0.00,WeatherDisplay:10.37,2013-04-19 00:59:00,
2013-04-18 21:04:00,51.8,37.9,30.15,SE,144,1.0,1.0,59,0.00,CLR,,0.00,WeatherDisplay:10.37,2013-04-19 01:04:00,
2013-04-18 21:09:00,51.8,38.3,30.15,SE,142,0.0,1.0,60,0.00,CLR,,0.00,WeatherDisplay:10.37,2013-04-19 01:09:00,
2013-04-18 21:14:00,51.6,38.6,30.12,ESE,113,2.0,2.0,61,0.00,CLR,,0.00,WeatherDisplay:10.37,2013-04-19 01:14:00,
2013-04-18 21:19:00,51.6,38.6,30.12,SSE,157,0.0,2.0,61,0.00,CLR,,0.00,WeatherDisplay:10.37,2013-04-19 01:19:00,
2013-04-18 21:24:00,51.6,38.6,30.12,SSE,161,1.0,2.0,61,0.00,CLR,,0.00,WeatherDisplay:10.37,2013-04-19 01:24:00,
2013-04-18 21:29:00,51.6,39.0,30.12,SE,143,0.0,1.0,62,0.00,CLR,,0.00,WeatherDisplay:10.37,2013-04-19 01:29:00,
2013-04-18 21:34:00,51.6,39.0,30.12,SE,125,3.0,4.0,62,0.00,CLR,,0.00,WeatherDisplay:10.37,2013-04-19 01:34:00,
2013-04-18 21:39:00,51.6,39.0,30.12,SE,137,1.0,3.0,62,0.00,CLR,,0.00,WeatherDisplay:10.37,2013-04-19 01:39:00,
2013-04-18 21:44:00,51.6,39.0,30.12,SSE,152,0.0,2.0,62,0.00,CLR,,0.00,WeatherDisplay:10.37,2013-04-19 01:44:00,
2013-04-18 21:49:00,51.6,39.4,30.12,South,176,1.0,2.0,63,0.00,CLR,,0.00,WeatherDisplay:10.37,2013-04-19 01:49:00,
2013-04-18 21:54:00,51.6,39.8,30.12,SW,236,1.0,2.0,64,0.00,CLR,,0.00,WeatherDisplay:10.37,2013-04-19 01:54:00,
2013-04-18 21:59:00,51.6,39.8,30.12,South,175,0.0,3.0,64,0.00,CLR,,0.00,WeatherDisplay:10.37,2013-04-19 01:59:00,
2013-04-18 22:04:00,51.6,39.8,30.12,South,186,1.0,3.0,64,0.00,CLR,,0.00,WeatherDisplay:10.37,2013-04-19 02:04:00,
2013-04-18 22:09:00,51.6,39.8,30.12,South,185,1.0,2.0,64,0.00,CLR,,0.00,WeatherDisplay:10.37,2013-04-19 02:09:00,
2013-04-18 22:14:00,51.6,40.2,30.12,SW,226,1.0,2.0,65,0.00,CLR,,0.00,WeatherDisplay:10.37,2013-04-19 02:14:00,
2013-04-18 22:19:00,51.6,40.2,30.12,SW,226,2.0,2.0,65,0.00,CLR,,0.00,WeatherDisplay:10.37,2013-04-19 02:19:00,
2013-04-18 22:24:00,51.6,40.2,30.12,South,190,2.0,4.0,65,0.00,CLR,,0.00,WeatherDisplay:10.37,2013-04-19 02:24:00,
2013-04-18 22:29:00,51.6,40.6,30.09,South,191,1.0,2.0,66,0.00,CLR,,0.00,WeatherDisplay:10.37,2013-04-19 02:29:00,
2013-04-18 22:34:00,51.6,40.6,30.09,SW,229,0.0,1.0,66,0.00,CLR,,0.00,WeatherDisplay:10.37,2013-04-19 02:34:00,
2013-04-18 22:39:00,51.6,40.6,30.09,SSE,156,0.0,1.0,66,0.00,CLR,,0.00,WeatherDisplay:10.37,2013-04-19 02:39:00,
2013-04-18 22:44:00,51.8,40.8,30.09,ESE,121,0.0,0.0,66,0.00,CLR,,0.00,WeatherDisplay:10.37,2013-04-19 02:44:00,
2013-04-18 22:49:00,51.8,41.2,30.09,SSE,152,0.0,1.0,67,0.00,CLR,,0.00,WeatherDisplay:10.37,2013-04-19 02:49:00,
2013-04-18 22:54:00,51.8,40.8,30.09,North,7,2.0,3.0,66,0.00,CLR,,0.00,WeatherDisplay:10.37,2013-04-19 02:54:00,
2013-04-18 22:59:00,51.8,41.2,30.09,SSW,210,2.0,2.0,67,0.00,CLR,,0.00,WeatherDisplay:10.37,2013-04-19 02:59:00,
2013-04-18 23:04:00,52.0,41.4,30.09,SSW,211,2.0,3.0,67,0.00,CLR,,0.00,WeatherDisplay:10.37,2013-04-19 03:04:00,
2013-04-18 23:09:00,52.0,41.7,30.09,SSW,200,2.0,4.0,68,0.00,CLR,,0.00,WeatherDisplay:10.37,2013-04-19 03:09:00,
2013-04-18 23:14:00,52.0,41.7,30.06,South,179,3.0,5.0,68,0.00,CLR,,0.00,WeatherDisplay:10.37,2013-04-19 03:14:00,
2013-04-18 23:19:00,52.0,41.7,30.06,SSE,162,1.0,5.0,68,0.00,CLR,,0.00,WeatherDisplay:10.37,2013-04-19 03:19:00,
2013-04-18 23:24:00,52.0,42.1,30.06,WNW,295,1.0,1.0,69,0.00,CLR,,0.00,WeatherDisplay:10.37,2013-04-19 03:24:00,
2013-04-18 23:29:00,52.1,42.2,30.06,ESE,106,2.0,3.0,69,0.00,CLR,,0.00,WeatherDisplay:10.37,2013-04-19 03:29:00,
2013-04-18 23:34:00,52.2,42.3,30.06,ESE,102,0.0,2.0,69,0.00,CLR,,0.00,WeatherDisplay:10.37,2013-04-19 03:34:00,
2013-04-18 23:39:00,52.2,42.7,30.06,East,79,1.0,2.0,70,0.00,CLR,,0.00,WeatherDisplay:10.37,2013-04-19 03:39:00,
2013-04-18 23:44:00,52.2,42.7,30.06,SE,132,1.0,3.0,70,0.00,CLR,,0.00,WeatherDisplay:10.37,2013-04-19 03:44:00,
2013-04-18 23:49:00,52.2,43.0,30.06,SSE,149,2.0,3.0,71,0.00,CLR,,0.00,WeatherDisplay:10.37,2013-04-19 03:49:00,
2013-04-18 23:54:00,52.2,43.0,30.06,SSE,165,1.0,3.0,71,0.00,CLR,,0.00,WeatherDisplay:10.37,2013-04-19 03:54:00,
2013-04-18 23:59:00,52.2,43.0,30.06,SE,137,2.0,3.0,71,0.00,CLR,,0.00,WeatherDisplay:10.37,2013-04-19 03:59:00,